Colima, Mexico

3:15 AM CDT on September 27, 2016 (GMT -0500)
Colima

Weather History for MMIA - October, 2012

Change the Weather History Date:

Friday, October 26, 2012

  Actual Average Record
Temperature  
Mean Temperature 82 °F -  
Max Temperature 92 °F 83 °F 93 °F (2001)
Min Temperature 73 °F 68 °F 64 °F (2007)
Cooling Degree Days 18    
Growing Degree Days 32 (Base 50)    
Moisture  
Dew Point 67 °F    
Average Humidity 65    
Maximum Humidity 86    
Minimum Humidity 44    
Precipitation  
Precipitation 0.00 in - - ()
Sea Level Pressure  
Sea Level Pressure 29.89 in    
Wind  
Wind Speed 3 mph ()    
Max Wind Speed 14 mph    
Max Gust Speed -    
Visibility 4.2 miles    
Events Fog    
Averages and records for this station are not official NWS values.
T = Trace of Precipitation, MM = Missing Value Source: Averaged Metar Reports

Daily Weather History Graph

Daily Weather History Graph

Search for Another Location

Airport or City:

Trip Planner

Search our weather history database for the weather conditions in past years. The results will help you decide how hot, cold, wet, or windy it might be!

Date:

Astronomy

Oct. 26, 2012 Rise Set
Actual Time 7:52 AM CDT 7:23 PM CDT
Civil Twilight 7:30 AM CDT 7:45 PM CDT
Nautical Twilight 7:04 AM CDT 8:11 PM CDT
Astronomical Twilight 6:38 AM CDT 8:37 PM CDT
Moon 5:24 PM CDT (10/26) 5:11 AM CDT (10/26)
Length of Visible Light 12h 15m
Length of Day
11h 30m
Waxing Gibbous, 91% of the Moon is Illuminated
Oct 26
Waxing Gibbous
Oct 29
Full
Nov 6
Last Quarter
Nov 13
New
Nov 20
First Quarter

Hourly Weather History & Observations

Time (CDT) Temp. Heat Index Dew Point Humidity Pressure Visibility Wind Dir Wind Speed Gust Speed Precip Events Conditions
6:00 AM 73.4 °F - 64.4 °F 73% 29.90 in 8.0 mi Calm Calm - N/A   Clear
6:40 AM 76 °F - 73 °F 86% 29.83 in 5 mi NE 4.5 mph - -   Haze
6:40 AM 73.4 °F - 64.4 °F 73% 29.91 in 8.0 mi Calm Calm - N/A   Clear
7:40 AM 73.4 °F - 66.2 °F 78% 29.92 in 0.5 mi Calm Calm - N/A Fog Fog
8:40 AM 73.4 °F - 68.0 °F 83% 29.93 in 1.0 mi Calm Calm - N/A   Mostly Cloudy
9:40 AM 75.2 °F - 68.0 °F 78% 29.95 in 3.0 mi Calm Calm - N/A   Mostly Cloudy
9:47 AM 80 °F - 73 °F 73% 29.87 in 4 mi East 4.5 mph - -   Haze
10:40 AM 77.0 °F - 66.2 °F 69% 29.96 in 5.0 mi Calm Calm - N/A   Mostly Cloudy
11:40 AM 82.4 °F 83.9 °F 64.4 °F 54% 29.95 in 5.0 mi Calm Calm - N/A   Mostly Cloudy
12:40 PM 84.2 °F 85.6 °F 64.4 °F 51% 29.96 in 6.0 mi Calm Calm - N/A   Mostly Cloudy
12:50 PM 90 °F - 71 °F 44% 29.84 in 4 mi West 6.7 mph - -   Haze
1:45 PM 84.2 °F 85.6 °F 64.4 °F 51% 29.96 in 4.0 mi SSW 6.9 mph - N/A   Mostly Cloudy
2:46 PM 84.2 °F 85.6 °F 64.4 °F 51% 29.88 in 4.0 mi SSW 9.2 mph - N/A   Mostly Cloudy
3:40 PM 84.2 °F 85.6 °F 64.4 °F 51% 29.86 in 4.0 mi SSW 11.5 mph - N/A   Mostly Cloudy
4:49 PM 84.2 °F 85.6 °F 64.4 °F 51% 29.84 in 4.0 mi WSW 11.5 mph - N/A   Mostly Cloudy
5:40 PM 84.2 °F 85.6 °F 64.4 °F 51% 29.85 in 3.0 mi SSW 13.8 mph - N/A   Haze
6:48 PM 84 °F - 74 °F 65% 29.75 in 6 mi South 6.7 mph - -   Haze
6:54 PM 78.8 °F - 66.2 °F 65% 29.87 in 3.0 mi WSW 6.9 mph - N/A   Haze
7:49 PM 77.0 °F - 66.2 °F 69% 29.88 in 4.0 mi Calm Calm - N/A   Mostly Cloudy
8:40 PM 75.2 °F - 66.2 °F 73% 29.90 in 5.0 mi SSW 9.2 mph - N/A   Mostly Cloudy
9:49 PM 79 °F - 75 °F 85% 29.81 in 2 mi SE 2.2 mph - -   Haze